TimeEST,TemperatureF,Dew PointF,Humidity,Sea Level PressureIn,VisibilityMPH,Wind Direction,Wind SpeedMPH,Gust SpeedMPH,PrecipitationIn,Events,Conditions,WindDirDegrees,DateUTC
12:51 AM,1.9,-9.9,58,30.06,10.0,Calm,Calm,-,N/A,,Clear,0,2013-01-03 05:51:00
1:51 AM,1.9,-9.9,58,30.06,10.0,WNW,4.6,-,N/A,,Clear,300,2013-01-03 06:51:00
2:51 AM,1.9,-9.9,58,30.07,10.0,Variable,3.5,-,N/A,,Clear,0,2013-01-03 07:51:00
3:51 AM,1.0,-9.9,60,30.05,10.0,NNW,4.6,-,N/A,,Clear,330,2013-01-03 08:51:00
4:51 AM,-0.0,-9.9,63,30.06,10.0,Calm,Calm,-,N/A,,Clear,0,2013-01-03 09:51:00
5:51 AM,-0.9,-9.9,66,30.06,10.0,Calm,Calm,-,N/A,,Clear,0,2013-01-03 10:51:00
6:51 AM,-0.9,-9.0,69,30.06,10.0,Calm,Calm,-,N/A,,Clear,0,2013-01-03 11:51:00
7:51 AM,-5.1,-11.0,76,30.07,10.0,Calm,Calm,-,N/A,,Clear,0,2013-01-03 12:51:00
8:51 AM,1.9,-8.0,63,30.06,10.0,NW,5.8,-,N/A,,Clear,310,2013-01-03 13:51:00
9:51 AM,8.1,-6.0,53,30.06,10.0,NW,4.6,-,N/A,,Clear,310,2013-01-03 14:51:00
10:51 AM,14.0,-6.0,41,30.05,10.0,Calm,Calm,-,N/A,,Clear,0,2013-01-03 15:51:00
11:51 AM,18.0,-4.0,38,30.02,10.0,Variable,3.5,-,N/A,,Clear,0,2013-01-03 16:51:00
12:51 PM,19.0,-4.0,36,30.00,10.0,Variable,3.5,-,N/A,,Clear,0,2013-01-03 17:51:00
1:51 PM,19.9,-2.0,38,29.98,10.0,NW,6.9,-,N/A,,Clear,310,2013-01-03 18:51:00
3:51 PM,19.0,-5.1,34,29.97,10.0,Variable,4.6,-,N/A,,Partly Cloudy,0,2013-01-03 20:51:00
4:51 PM,17.1,-5.1,37,29.97,10.0,Variable,3.5,-,N/A,,Partly Cloudy,0,2013-01-03 21:51:00
5:51 PM,16.0,-6.0,38,29.98,10.0,West,6.9,-,N/A,,Clear,280,2013-01-03 22:51:00
7:51 PM,15.1,-2.0,47,29.99,10.0,WNW,5.8,-,N/A,,Partly Cloudy,290,2013-01-04 00:51:00
8:51 PM,14.0,-2.0,49,30.00,10.0,Variable,3.5,-,N/A,,Mostly Cloudy,0,2013-01-04 01:51:00
9:51 PM,12.0,-2.0,53,29.99,10.0,WSW,4.6,-,N/A,,Partly Cloudy,240,2013-01-04 02:51:00
10:51 PM,12.9,-2.9,49,29.97,10.0,West,3.5,-,N/A,,Clear,260,2013-01-04 03:51:00
11:51 PM,12.0,-2.9,51,29.94,10.0,Calm,Calm,-,N/A,,Clear,0,2013-01-04 04:51:00